| time (UTC) | temp F | wind direction | speed MPH | gust MPH | rain 1hr in | rain 24hr in | rain mn in | humidity % | barometer mb |
| 20260506181530 | 43 | 296 | 1.0 | 5.0 | 0.15 | 0.84 | 0.60 | 96 | 1004.1 |
| 20260506180030 | 43 | 264 | 2.0 | 10.0 | 0.27 | 0.83 | 0.59 | 96 | 1004.6 |
| 20260506174528 | 43 | 284 | 4.0 | 7.0 | 0.23 | 0.75 | 0.51 | 96 | 1004.4 |
| 20260506173028 | 43 | 21 | 0.0 | 8.0 | 0.24 | 0.72 | 0.48 | 96 | 1004.5 |
| 20260506171529 | 43 | 5 | 1.0 | 10.0 | 0.24 | 0.69 | 0.45 | 96 | 1004.5 |
| 20260506170023 | 44 | 308 | 4.0 | 11.0 | 0.12 | 0.55 | 0.31 | 95 | 1004.2 |
| 20260506164518 | 45 | 38 | 0.0 | 6.0 | 0.09 | 0.51 | 0.27 | 96 | 1004.1 |
| 20260506163015 | 46 | 312 | 1.0 | 4.0 | 0.06 | 0.47 | 0.23 | 96 | 1004.2 |
| 20260506161544 | 46 | 326 | 0.0 | 4.0 | 0.06 | 0.45 | 0.21 | 96 | 1004.3 |
| 20260506160043 | 47 | 300 | 4.0 | 8.0 | 0.06 | 0.43 | 0.19 | 95 | 1004.5 |
| 20260506154520 | 52 | 146 | 3.0 | 6.0 | 0.05 | 0.42 | 0.18 | 97 | 1004.5 |
| 20260506153018 | 52 | 165 | 5.0 | 12.0 | 0.05 | 0.41 | 0.17 | 97 | 1004.4 |
| 20260506151514 | 50 | 185 | 4.0 | 10.0 | 0.04 | 0.39 | 0.15 | 97 | 1004.8 |
| 20260506150014 | 47 | 123 | 0.0 | 1.0 | 0.03 | 0.37 | 0.13 | 96 | 1005.0 |
| 20260506144514 | 47 | 297 | 2.0 | 5.0 | 0.03 | 0.36 | 0.12 | 96 | 1005.2 |
| 20260506143025 | 48 | 180 | 0.0 | 5.0 | 0.04 | 0.36 | 0.12 | 96 | 1004.9 |
| 20260506141511 | 48 | 158 | 1.0 | 5.0 | 0.04 | 0.35 | 0.11 | 97 | 1004.9 |
| 20260506140009 | 47 | 256 | 0.0 | 4.0 | 0.05 | 0.34 | 0.10 | 96 | 1005.1 |
| 20260506134511 | 46 | 271 | 0.0 | 3.0 | 0.06 | 0.33 | 0.09 | 96 | 1005.5 |
| 20260506133008 | 46 | 249 | 0.0 | 3.0 | 0.06 | 0.32 | 0.08 | 96 | 1005.4 |
| 20260506131508 | 45 | 204 | 0.0 | 9.0 | 0.06 | 0.31 | 0.07 | 96 | 1005.2 |
| 20260506130009 | 46 | 269 | 2.0 | 4.0 | 0.04 | 0.28 | 0.05 | 96 | 1005.6 |
| 20260506124502 | 46 | 292 | 0.0 | 3.0 | 0.02 | 0.27 | 0.03 | 96 | 1005.8 |
| 20260506123100 | 47 | 325 | 0.0 | 3.0 | 0.01 | 0.26 | 0.02 | 96 | 1005.8 |
| 20260506121559 | 47 | 247 | 1.0 | 4.0 | 0.00 | 0.25 | 0.01 | 96 | 1005.9 |
| 20260506120058 | 47 | 273 | 4.0 | 9.0 | 0.00 | 0.25 | 0.01 | 96 | 1006.2 |
| 20260506114555 | 47 | 315 | 2.0 | 6.0 | 0.00 | 0.25 | 0.01 | 96 | 1006.1 |
| 20260506113052 | 48 | 260 | 0.0 | 2.0 | 0.00 | 0.25 | 0.01 | 96 | 1005.5 |
| 20260506111550 | 48 | 298 | 1.0 | 2.0 | 0.00 | 0.25 | 0.01 | 96 | 1005.9 |
| 20260506110048 | 48 | 300 | 0.0 | 2.0 | 0.00 | 0.25 | 0.01 | 96 | 1005.6 |
| 20260506104545 | 48 | 355 | 1.0 | 3.0 | 0.00 | 0.25 | 0.01 | 95 | 1005.6 |
| 20260506103048 | 49 | 30 | 0.0 | 3.0 | 0.00 | 0.25 | 0.01 | 96 | 1005.6 |
| 20260506101541 | 49 | 109 | 0.0 | 3.0 | 0.01 | 0.25 | 0.01 | 96 | 1005.8 |
| 20260506100039 | 49 | 360 | 0.0 | 3.0 | 0.01 | 0.25 | 0.01 | 96 | 1006.0 |
| 20260506094537 | 49 | 301 | 1.0 | 3.0 | 0.01 | 0.25 | 0.01 | 96 | 1005.8 |
| 20260506093006 | 50 | 274 | 0.0 | 2.0 | 0.01 | 0.25 | 0.01 | 96 | 1006.1 |
| 20260506091514 | 50 | 214 | 1.0 | 2.0 | 0.00 | 0.24 | 0.00 | 96 | 1006.1 |
| 20260506090005 | 50 | 215 | 0.0 | 2.0 | 0.00 | 0.24 | 0.00 | 95 | 1006.2 |
| 20260506084503 | 50 | 304 | 0.0 | 1.0 | 0.00 | 0.24 | 0.00 | 95 | 1006.1 |
| 20260506083001 | 50 | 304 | 0.0 | 3.0 | 0.00 | 0.24 | 0.00 | 95 | 1006.6 |
| 20260506081607 | 50 | 288 | 2.0 | 5.0 | 0.00 | 0.24 | 0.00 | 95 | 1007.0 |
| 20260506080154 | 50 | 98 | 0.0 | 0.0 | 0.00 | 0.24 | 0.00 | 95 | 1006.1 |
| 20260506073023 | 50 | 98 | 0.0 | 3.0 | 0.00 | 0.24 | 0.00 | 95 | 1006.1 |
| 20260506071523 | 50 | 333 | 0.0 | 2.0 | 0.00 | 0.24 | 0.00 | 95 | 1005.9 |
| 20260506061538 | 51 | 162 | 0.0 | 1.0 | 0.07 | 0.24 | 0.24 | 94 | 1006.1 |
| 20260506044510 | 51 | 277 | 3.0 | 6.0 | 0.02 | 0.10 | 0.10 | 91 | 1006.7 |
| 20260506043008 | 51 | 355 | 4.0 | 11.0 | 0.02 | 0.10 | 0.10 | 90 | 1006.5 |
| 20260506041505 | 53 | 346 | 7.0 | 13.0 | 0.01 | 0.09 | 0.09 | 84 | 1006.4 |
| 20260506040002 | 58 | 321 | 3.0 | 8.0 | 0.00 | 0.08 | 0.08 | 77 | 1006.2 |
| 20260506034605 | 58 | 251 | 0.0 | 3.0 | 0.00 | 0.08 | 0.08 | 74 | 1005.8 |
| 20260506033027 | 58 | 188 | 1.0 | 4.0 | 0.00 | 0.08 | 0.08 | 75 | 1005.5 |
| 20260506031536 | 58 | 219 | 0.0 | 3.0 | 0.00 | 0.08 | 0.08 | 73 | 1005.5 |
| 20260506030029 | 58 | 173 | 1.0 | 3.0 | 0.00 | 0.08 | 0.08 | 72 | 1005.4 |
| 20260506024538 | 58 | 166 | 2.0 | 7.0 | 0.00 | 0.08 | 0.08 | 72 | 1005.6 |
| 20260506023023 | 58 | 153 | 0.0 | 6.0 | 0.00 | 0.08 | 0.08 | 72 | 1005.4 |
| 20260506021522 | 58 | 149 | 0.0 | 3.0 | 0.00 | 0.08 | 0.08 | 72 | 1005.5 |
| 20260506020019 | 58 | 121 | 1.0 | 4.0 | 0.00 | 0.08 | 0.08 | 72 | 1005.4 |
| 20260506014521 | 58 | 150 | 1.0 | 7.0 | 0.00 | 0.08 | 0.08 | 72 | 1005.2 |
| 20260506013018 | 58 | 164 | 1.0 | 3.0 | 0.00 | 0.08 | 0.08 | 71 | 1005.1 |
| 20260506011517 | 58 | 165 | 1.0 | 3.0 | 0.00 | 0.08 | 0.08 | 70 | 1005.1 |
| 20260506010015 | 59 | 153 | 0.0 | 2.0 | 0.00 | 0.08 | 0.08 | 69 | 1004.9 |
| 20260506004515 | 59 | 150 | 2.0 | 3.0 | 0.00 | 0.08 | 0.08 | 70 | 1005.1 |
| 20260506003014 | 59 | 283 | 1.0 | 6.0 | 0.00 | 0.08 | 0.08 | 70 | 1004.8 |
| 20260506001513 | 59 | 276 | 3.0 | 8.0 | 0.00 | 0.08 | 0.08 | 69 | 1004.8 |
| 20260506000010 | 59 | 266 | 2.0 | 8.0 | 0.00 | 0.08 | 0.08 | 70 | 1004.6 |
| 20260505234510 | 59 | 291 | 3.0 | 8.0 | 0.00 | 0.08 | 0.08 | 71 | 1004.8 |
| 20260505233009 | 59 | 285 | 2.0 | 5.0 | 0.00 | 0.08 | 0.08 | 71 | 1004.5 |
| 20260505231509 | 59 | 259 | 2.0 | 10.0 | 0.00 | 0.08 | 0.08 | 71 | 1004.1 |
| 20260505230005 | 60 | 283 | 5.0 | 13.0 | 0.00 | 0.08 | 0.08 | 71 | 1004.3 |
| 20260505224505 | 59 | 277 | 6.0 | 15.0 | 0.00 | 0.08 | 0.08 | 71 | 1004.1 |
| 20260505223004 | 59 | 244 | 4.0 | 12.0 | 0.00 | 0.08 | 0.08 | 73 | 1003.8 |
| 20260505221505 | 59 | 304 | 3.0 | 11.0 | 0.00 | 0.08 | 0.08 | 78 | 1003.8 |
| 20260505220100 | 60 | 280 | 5.0 | 10.0 | 0.00 | 0.08 | 0.08 | 74 | 1004.4 |
| 20260505214621 | 60 | 239 | 3.0 | 7.0 | 0.00 | 0.08 | 0.08 | 74 | 1003.5 |
| 20260505213103 | 60 | 285 | 1.0 | 6.0 | 0.00 | 0.08 | 0.08 | 75 | 1002.8 |
| 20260505211607 | 59 | 189 | 4.0 | 8.0 | 0.03 | 0.08 | 0.08 | 76 | 1002.9 |
| 20260505210054 | 58 | 55 | 4.0 | 10.0 | 0.05 | 0.08 | 0.08 | 78 | 1003.4 |
| 20260505204554 | 58 | 128 | 3.0 | 13.0 | 0.08 | 0.08 | 0.08 | 78 | 1003.2 |
| 20260505203053 | 57 | 247 | 4.0 | 17.0 | 0.08 | 0.08 | 0.08 | 79 | 1003.0 |
| 20260505201555 | 58 | 275 | 6.0 | 24.0 | 0.05 | 0.05 | 0.05 | 76 | 1002.9 |
| 20260505200058 | 63 | 260 | 14.0 | 33.0 | 0.03 | 0.03 | 0.03 | 68 | 1003.0 |
| 20260505194547 | 69 | 221 | 2.0 | 16.0 | 0.00 | 0.00 | 0.00 | 47 | 1001.3 |
| 20260505193047 | 71 | 360 | 6.0 | 23.0 | 0.00 | 0.00 | 0.00 | 40 | 1001.2 |
| 20260505193045 | 71 | 336 | 6.0 | 23.0 | 0.00 | 0.00 | 0.00 | 40 | 1001.2 |
| 20260505191547 | 72 | 166 | 6.0 | 17.0 | 0.00 | 0.00 | 0.00 | 39 | 1000.6 |
| 20260505190044 | 72 | 286 | 4.0 | 15.0 | 0.00 | 0.00 | 0.00 | 39 | 1000.5 |
| 20260505184540 | 74 | 265 | 4.0 | 16.0 | 0.00 | 0.00 | 0.00 | 38 | 1001.1 |
| 20260505183051 | 74 | 317 | 7.0 | 15.0 | 0.00 | 0.00 | 0.00 | 36 | 1000.9 |